Regional Weather Roundup
Issued by NWS

Home | Current Version | Previous Version | Text Only | Print | Product List | Glossary Off
Versions: 1 2 3 4 5 6 7 8 9 10 11 12 13 14 15 16 17 18 19 20 21 22 23 24 25 26 27 28 29 30 31 32 33 34 35 36 37 38 39 40 41 42 43 44 45 46 47 48 49 50

000
ASUS43 KMKX 031521
RWRWI

WISCONSIN REGIONAL WEATHER ROUNDUP
NATIONAL WEATHER SERVICE MILWAUKEE/SULLIVAN WI
1000 AM CDT TUE MAY 03 2016

NOTE: "FAIR" INDICATES FEW OR NO CLOUDS BELOW 12,000 FEET WITH NO
SIGNIFICANT WEATHER AND/OR OBSTRUCTIONS TO VISIBILITY.

WIZ001-002-006>008-014>016-023>028-031600-
NORTHWEST WISCONSIN

CITY           SKY/WX    TMP DP  RH WIND       PRES   REMARKS
SUPERIOR ARPT  CLOUDY    59  36  41 W12       29.76F
ASHLAND        CLOUDY    60  38  43 W9        29.76F
HAYWARD        CLOUDY    59  35  40 SW9       29.81F
SIREN          MOSUNNY   61  34  35 W8        29.84F
CUMBERLAND     PTSUNNY   59  37  44 W12       29.85F
RICE LAKE      PTSUNNY   60  38  43 W10       29.87F
CHETEK         PTSUNNY   63  39  41 NW7       29.85F
LADYSMITH      MOSUNNY   61  38  42 SW9       29.85F
EAU CLAIRE     SUNNY     60  40  47 SW10      29.87F
MENOMONIE      SUNNY     65  40  40 SW9       29.88F
NEW RICHMOND   MOSUNNY   60  39  45 W8        29.88F
OSCEOLA        CLOUDY    60  40  48 W8        29.91F
$$

WIZ003>005-009-010-017-018-031600-
NORTH CENTRAL WISCONSIN

CITY           SKY/WX    TMP DP  RH WIND       PRES   REMARKS
MANITOWISH WTR CLOUDY    56  36  46 W10       29.77F
ARBOR VITAE    CLOUDY    58  35  42 W12G17    29.78F
WOODRUFF       CLOUDY    58  35  42 W12G17    29.78F
RHINELANDER    CLOUDY    60  33  36 W13G21    29.81F
EAGLE RIVER    CLOUDY    57  32  38 W10       29.78F
LAND O LAKES   CLOUDY    59  32  35 W13       29.77F
PHILLIPS       CLOUDY    60  37  42 W7G18     29.80F
TOMAHAWK       CLOUDY    61  31  33 W8G18     29.82F
MEDFORD        MOSUNNY   58  39  49 W9G16     29.85F
MERRILL        MOSUNNY   63  34  34 W16G25    29.83F
$$

WIZ029-030-035-036-043>047-031600-
CENTRAL WISCONSIN

CITY           SKY/WX    TMP DP  RH WIND       PRES   REMARKS
WAUSAU         SUNNY     64  36  35 W16G23    29.84F
MOSINEE        SUNNY     63  37  39 W13G20    29.87F
MARSHFIELD     SUNNY     62  40  44 W13       29.87F
STEVENS POINT  SUNNY     60  37  42 W9G16     29.88F
WAUPACA        SUNNY     66  34  30 W12       29.87F
WAUTOMA        SUNNY     63  38  39 W16G22    29.89F
WISC RAPIDS    SUNNY     63  36  36 NW12      29.90F
CAMP DOUGLAS   MOSUNNY   63  43  48 W14       29.90F
$$

WIZ011>013-019>022-031-037>040-048>050-031600-
NORTHEAST WISCONSIN

CITY           SKY/WX    TMP DP  RH WIND       PRES   REMARKS
ANTIGO         SUNNY     60  37  41 W16G25    29.83F
SHAWANO        SUNNY     67  34  29 W10G18    29.84F
OCONTO         SUNNY     64  37  36 W12G18    29.82F
STURGEON BAY   MOSUNNY   61  37  41 W16       29.85F
GREEN BAY      SUNNY     63  40  42 W12       29.85F
MANITOWOC      SUNNY     62  38  40 MISG      29.86F
APPLETON       MOSUNNY   61  34  36 W15       29.86F
CLINTONVILLE   SUNNY     64  32  29 W12G17    29.85F
OSHKOSH        SUNNY     62  39  42 W10G18    29.88F
$$

WIZ032>034-041-042-053>061-031600-
SOUTHWEST WISCONSIN

CITY           SKY/WX    TMP DP  RH WIND       PRES   REMARKS
LA CROSSE      SUNNY     63  42  46 S7        29.92F
SPARTA         SUNNY     61  41  48 W7        29.92F
VIROQUA        SUNNY     59  40  48 W15       29.94F
BOSCOBEL       SUNNY     63  43  48 VRB5      29.96F
PRAIRIE DU CHI SUNNY     62  40  45 W9        29.96F
PLATTEVILLE    SUNNY     59  45  60 W13       29.97F
$$

WIZ056-057-062-063-064-067-068-031600-
SOUTH CENTRAL WISCONSIN

CITY           SKY/WX    TMP DP  RH WIND       PRES   REMARKS
REEDSBURG      SUNNY     61  42  50 W13       29.92F
BARABOO/DELLS  SUNNY     60  38  44 W9G17     29.92F
LONE ROCK      SUNNY     59  43  55 SW8       29.95F
MINERAL POINT  SUNNY     63  41  45 W15       29.96S
MADISON        MOSUNNY   61  40  45 NW10      29.93F
MIDDLETON      SUNNY     61  42  49 W10       29.94F
WATERTOWN      SUNNY     60  42  50 W5        29.91F
MONROE         SUNNY     59  41  51 W10G17    29.95F
JANESVILLE     MOSUNNY   63  43  48 NW10      29.93F
$$

WIZ051-052-058>065-066-070>072-031600-
SOUTHEAST WISCONSIN

CITY           SKY/WX    TMP DP  RH WIND       PRES   REMARKS
MILWAUKEE      MOSUNNY   62  38  40 NW8       29.92F
WAUKESHA       SUNNY     57  39  51 NW12      29.93F
MILWAUKEE/TIMM SUNNY     61  37  41 W8        29.92F
RACINE         SUNNY     61  39  44 VRB7      29.94F
BURLINGTON     SUNNY     60  39  45 W9        29.93F
KENOSHA        SUNNY     60  41  49 W7        29.93F
FOND DU LAC    SUNNY     63  39  41 W9        29.89F
SHEBOYGAN      SUNNY     63  38  39 W12       29.88F
WEST BEND      SUNNY     61  37  41 W8G17     29.90F
JUNEAU         SUNNY     60  42  52 W9        29.92F
$$

LSZ147-162-031600-
LAKE SUPERIOR

STATION/POSITION TIME  TEMP    WIND        PRES    WAVE
                       AIR SEA DIR/SP/G            HT/PER
                 (UTC) (F)     (DEG/KT/KT) (MB)    (FT/S)
W MID LAKE BUOY  1450   42 37  240/ 16/ 19 1005.8F   2/ 4
DEVILS ISLAND    1500   47     240/ 24/ 27 1006.7R
SAXON HARBOR     1400   58     220/  9/ 15 1007.5F
$$

LMZ867-665-643>646-031600-
LAKE MICHIGAN

STATION/POSITION TIME  TEMP    WIND        PRES    WAVE
                       AIR SEA DIR/SP/G            HT/PER
                 (UTC) (F)     (DEG/KT/KT) (MB)    (FT/S)
CHAMBERS ISLAND  1400   51     190/  6/ 10 1010.2F
N MID LAKE BUOY  1450   41 39  200/ 12/ 14 1009.7F   1/ 3
NORTHPORT PIER   1400   56     250/  4/  6 1009.8F
ALGOMA LAKESHORE 1445          280/ 12/ 16   N/A
KEWAUNEE LAKESHO 1500   62     260/ 10/ 15 1009.9F
SHEBOYGAN LAKESH 1500   62     260/ 13/ 14 1012.0F
PORT WASHINGTON  1400   60     290/  8/ 13 1013.5F
S MID LAKE BUOY  1450   44 41  190/  8/  8 1013.8F   0
KENOSHA   LAKESH 1500   60     240/  4/  8 1013.5F
$$

TC  - TEMPERATURE IN CELSIUS
VSB - VISIBILITY IN STATUTE MILES
WCI - WIND CHILL INDEX
HX  - HEAT INDEX





USA.gov is the U.S. government's official web portal to all federal, state and local government web resources and services.